TimeEST,TemperatureF,Dew PointF,Humidity,Sea Level PressureIn,VisibilityMPH,Wind Direction,Wind SpeedMPH,Gust SpeedMPH,PrecipitationIn,Events,Conditions,WindDirDegrees,DateUTC
12:10 AM,69.8,66.2,88,29.91,10.0,West,18.4,24.2,N/A,,Overcast,260,2012-02-11 05:10:00
12:53 AM,70.0,66.9,90,29.92,10.0,West,13.8,-,N/A,,Overcast,270,2012-02-11 05:53:00
1:53 AM,70.0,66.0,87,29.93,10.0,WNW,18.4,27.6,N/A,,Overcast,300,2012-02-11 06:53:00
2:53 AM,66.9,64.9,93,29.92,10.0,WNW,10.4,-,0.06,Rain,Light Rain,290,2012-02-11 07:53:00
3:30 AM,66.2,64.4,94,29.89,10.0,WNW,6.9,-,0.05,Rain,Light Rain,300,2012-02-11 08:30:00
3:53 AM,66.0,64.9,96,29.89,10.0,WNW,5.8,-,0.07,Rain,Light Rain,290,2012-02-11 08:53:00
4:53 AM,66.0,64.0,93,29.88,10.0,SW,5.8,-,0.00,,Overcast,230,2012-02-11 09:53:00
5:53 AM,64.9,64.9,100,29.87,10.0,West,5.8,-,N/A,,Clear,270,2012-02-11 10:53:00
6:41 AM,66.2,64.4,94,29.89,10.0,West,6.9,-,N/A,,Scattered Clouds,270,2012-02-11 11:41:00
6:53 AM,66.0,64.9,96,29.89,10.0,West,6.9,-,N/A,,Scattered Clouds,270,2012-02-11 11:53:00
7:25 AM,66.2,64.4,94,29.89,10.0,West,6.9,-,N/A,,Mostly Cloudy,260,2012-02-11 12:25:00
7:53 AM,66.0,64.9,96,29.91,10.0,WNW,13.8,-,N/A,,Overcast,290,2012-02-11 12:53:00
8:53 AM,66.0,64.0,93,29.94,10.0,WNW,15.0,-,N/A,,Overcast,300,2012-02-11 13:53:00
9:26 AM,66.2,62.6,88,29.95,10.0,NW,12.7,-,N/A,,Overcast,310,2012-02-11 14:26:00
9:53 AM,66.9,62.1,84,29.96,10.0,NW,16.1,-,N/A,,Mostly Cloudy,310,2012-02-11 14:53:00
10:53 AM,68.0,59.0,73,29.96,10.0,NW,18.4,-,N/A,,Overcast,310,2012-02-11 15:53:00
11:53 AM,69.1,57.0,65,29.95,10.0,NW,20.7,26.5,N/A,,Mostly Cloudy,320,2012-02-11 16:53:00
12:27 PM,71.6,57.2,60,29.95,10.0,WNW,15.0,-,N/A,,Scattered Clouds,290,2012-02-11 17:27:00
12:53 PM,72.0,55.9,57,29.94,10.0,WNW,17.3,23.0,N/A,,Mostly Cloudy,290,2012-02-11 17:53:00
1:53 PM,70.0,51.1,51,29.92,10.0,West,21.9,27.6,N/A,,Scattered Clouds,280,2012-02-11 18:53:00
2:53 PM,71.1,48.0,44,29.91,10.0,WNW,17.3,24.2,N/A,,Scattered Clouds,300,2012-02-11 19:53:00
3:53 PM,69.1,48.9,49,29.91,10.0,WNW,19.6,24.2,N/A,,Scattered Clouds,290,2012-02-11 20:53:00
4:53 PM,68.0,51.1,55,29.93,10.0,WNW,19.6,26.5,N/A,,Mostly Cloudy,290,2012-02-11 21:53:00
5:53 PM,64.9,50.0,58,29.93,10.0,WNW,13.8,-,N/A,,Scattered Clouds,290,2012-02-11 22:53:00
6:53 PM,64.0,51.1,63,29.95,10.0,West,12.7,-,N/A,,Scattered Clouds,280,2012-02-11 23:53:00
7:53 PM,63.0,48.0,58,29.98,10.0,WNW,17.3,25.3,N/A,,Scattered Clouds,300,2012-02-12 00:53:00
8:53 PM,60.1,48.9,67,30.01,10.0,WNW,12.7,-,N/A,,Scattered Clouds,290,2012-02-12 01:53:00
9:53 PM,57.9,48.0,70,30.04,10.0,WNW,18.4,-,N/A,,Scattered Clouds,300,2012-02-12 02:53:00
10:53 PM,55.9,45.0,67,30.07,10.0,WNW,21.9,29.9,N/A,,Partly Cloudy,300,2012-02-12 03:53:00
11:53 PM,54.0,43.0,66,30.08,10.0,NW,20.7,27.6,N/A,,Partly Cloudy,320,2012-02-12 04:53:00